{"data":{"norad_id":39241,"epoch":"2026-05-25T03:10:17.516352Z","epoch_age_seconds":66738,"freshness":"FRESH","line1":"1 39241U 13046C   26145.13214718  .00000045  00000+0  13222-3 0  9999","line2":"2 39241  63.3848 149.1250 0425265  11.3737 349.6539 13.45475655625277","mean_motion":13.45475655,"eccentricity":0.0425265,"inclination_deg":63.3848,"raan_deg":149.125,"arg_perigee_deg":11.3737,"mean_anomaly_deg":349.6539,"bstar":0.00013222,"rev_number":62527,"period_min":107.02534784994,"perigee_km":771.40203159934,"apogee_km":1406.5002805374,"semimajor_km":7467.0881560684,"source":"CELESTRAK","updated_at":"2026-05-25T13:37:55.373514Z"}}